Weather in Mayskiy

Russia / Altai Krai     52°46′01″N   81°21′10″E
В апреле 2022 года жителям России запретили посещать сайт meteo.paraplan.net по решению Генеральной прокуратуры. Аудитория сайта уменьшилась в 10 раз. Владельцы сайта не видят смысла в поддержке погодного сервера в таких условиях. Сайт будет закрыт в октябре.
temp.,
°C
wind,
m/s
gust,
m/s
humid.,
%
clouds,
%
prec.,
mm/h
press.,
hPa
HPBL,
m
5 october, wed
wed501:00+3nw22565 0.0 103410
04:00+2w226199 0.0 103413
07:00+1wsw3463100 0.0 103452
10:00+4wsw4855100 0.1 1034301
13:00+5sw51055100 0.4 1034370
16:00+7wsw5847100 0.0 1033518
19:00+7wsw365755 0.0 1033127
22:00+7sw4760100 0.0 1033146
6 october, thu
thu601:00+8sw4958100 0.0 1032200
04:00+5wsw4976100 0.0 1030149
07:00+6wsw41083100 0.0 1030197
10:00+8w4972100 0.0 1030355
13:00+12wnw564897 0.0 1029760
16:00+13nw4544100 0.0 10291210
19:00+9ene237694 0.0 103048
22:00+7ese349199 0.0 103172
7 october, fri
fri701:00+6se369416 0.0 1031119
04:00+5sse349548 0.0 103176
07:00+4sse3494100 0.0 103062
10:00+7sse358099 0.0 1029201
13:00+13s334478 0.0 1028658
16:00+15s2228100 0.0 1026960
19:00+11se3336100 0.0 102528
22:00+8sse464299 0.0 102483
8 october, sat
sat801:00+7sse4756100 0.0 1023108
04:00+6sse4773100 0.0 1022103
07:00+5sse486969 0.0 1020113
10:00+10s5103461 0.0 1018265
13:00+18s7101899 0.0 1015778
16:00+21ssw71017100 0.0 10121286
19:00+16s41122100 0.0 1011162
22:00+14s6152697 0.0 1010262
9 october, sun
sun901:00+15s8162878 0.0 1009427
04:00+14ssw7153199 0.0 1008416
07:00+11ssw714365 0.0 1009354
10:00+10wsw814490 0.0 1012799
13:00+12wsw101446100 0.0 10141902
16:00+11sw91448100 0.0 10151857
19:00+10w6105996 0.0 10171202
22:00+8wsw4107474 0.1 1020458